2016-10-16 00:03:16 r, 17.45m,0000000009Hz,0000052625c,0000000.114s, 014.1C,00002191
2016-10-16 00:13:16 r, 17.38m,0000000010Hz,0000048924c,0000000.106s, 013.8C,00002191
2016-10-16 00:23:16 r, 17.28m,0000000010Hz,0000044655c,0000000.097s, 013.8C,00002191
2016-10-16 00:33:16 r, 17.14m,0000000012Hz,0000039385c,0000000.085s, 013.5C,00002191
2016-10-16 00:43:16 r, 16.98m,0000000013Hz,0000034177c,0000000.074s, 013.5C,00002191
2016-10-16 00:53:16 r, 16.88m,0000000014Hz,0000030910c,0000000.067s, 013.5C,00002191
2016-10-16 01:03:16 r, 16.86m,0000000015Hz,0000030430c,0000000.066s, 013.2C,00002191
2016-10-16 01:13:16 r, 16.85m,0000000016Hz,0000030144c,0000000.065s, 013.2C,00002191
2016-10-16 01:23:16 r, 16.88m,0000000014Hz,0000031080c,0000000.067s, 012.8C,00002191
2016-10-16 01:33:16 r, 16.96m,0000000014Hz,0000033355c,0000000.072s, 012.8C,00002191
2016-10-16 01:43:16 r, 17.11m,0000000012Hz,0000038408c,0000000.083s, 012.5C,00002191
2016-10-16 01:53:16 r, 17.18m,0000000012Hz,0000040733c,0000000.088s, 012.2C,00002191
2016-10-16 02:03:16 r, 17.31m,0000000010Hz,0000046320c,0000000.101s, 012.2C,00002191
2016-10-16 02:13:16 r, 17.42m,0000000009Hz,0000050703c,0000000.110s, 012.2C,00002191
2016-10-16 02:23:16 r, 17.49m,0000000008Hz,0000054364c,0000000.118s, 012.5C,00002191
2016-10-16 02:33:16 r, 17.55m,0000000008Hz,0000057421c,0000000.125s, 012.5C,00002191
2016-10-16 02:43:16 r, 17.60m,0000000007Hz,0000060381c,0000000.131s, 012.5C,00002191
2016-10-16 02:53:16 r, 17.66m,0000000008Hz,0000063299c,0000000.137s, 012.5C,00002191
2016-10-16 03:03:16 r, 17.70m,0000000007Hz,0000066316c,0000000.144s, 012.5C,00002191
2016-10-16 03:13:16 r, 17.70m,0000000007Hz,0000066414c,0000000.144s, 012.5C,00002191
2016-10-16 03:23:15 r, 17.78m,0000000006Hz,0000071028c,0000000.154s, 012.5C,00002191
2016-10-16 03:33:16 r, 17.79m,0000000006Hz,0000071978c,0000000.156s, 012.5C,00002191
2016-10-16 03:43:16 r, 17.77m,0000000007Hz,0000070264c,0000000.152s, 012.5C,00002191
2016-10-16 03:53:16 r, 17.86m,0000000006Hz,0000076752c,0000000.167s, 012.5C,00002191
2016-10-16 04:03:16 r, 17.91m,0000000006Hz,0000080143c,0000000.174s, 012.5C,00002191
2016-10-16 04:13:16 r, 18.00m,0000000005Hz,0000087316c,0000000.189s, 012.2C,00002191
2016-10-16 04:23:16 r, 18.10m,0000000005Hz,0000095145c,0000000.206s, 012.2C,00002191
2016-10-16 04:33:16 r, 18.15m,0000000005Hz,0000100201c,0000000.217s, 012.2C,00002191
2016-10-16 04:43:16 r, 18.20m,0000000005Hz,0000104742c,0000000.227s, 012.2C,00002191
2016-10-16 04:53:16 r, 18.26m,0000000004Hz,0000110181c,0000000.239s, 012.2C,00002191
2016-10-16 05:03:16 r, 18.31m,0000000004Hz,0000115232c,0000000.250s, 012.2C,00002191
2016-10-16 05:13:16 r, 18.36m,0000000003Hz,0000120981c,0000000.263s, 012.2C,00002191
2016-10-16 05:23:16 r, 18.41m,0000000004Hz,0000126468c,0000000.274s, 012.2C,00002191
2016-10-16 05:33:16 r, 18.46m,0000000003Hz,0000131572c,0000000.286s, 011.9C,00002191
2016-10-16 05:43:16 r, 18.51m,0000000004Hz,0000137383c,0000000.298s, 011.9C,00002191
2016-10-16 05:53:16 r, 18.55m,0000000003Hz,0000144141c,0000000.313s, 011.9C,00002191
2016-10-16 06:03:16 r, 18.61m,0000000003Hz,0000150796c,0000000.327s, 011.9C,00002191
2016-10-16 06:13:16 r, 18.66m,0000000003Hz,0000158437c,0000000.344s, 011.9C,00002191
2016-10-16 06:23:15 r, 18.81m,0000000003Hz,0000181427c,0000000.394s, 011.6C,00002191
2016-10-16 06:33:16 r, 18.86m,0000000002Hz,0000190972c,0000000.414s, 011.6C,00002191
2016-10-16 06:43:16 r, 18.11m,0000000005Hz,0000096075c,0000000.208s, 011.6C,00002191
2016-10-16 06:53:16 r, 17.01m,0000000013Hz,0000034843c,0000000.076s, 011.6C,00002191
2016-10-16 07:03:16 r, 16.38m,0000000023Hz,0000019701c,0000000.043s, 011.9C,00002191
2016-10-16 07:13:16 r, 14.56m,0000000125Hz,0000003659c,0000000.008s, 011.9C,00002191
2016-10-16 07:23:15 r, 12.06m,0000001274Hz,0000000000c,0000000.000s, 011.6C,00002191
2016-10-16 07:33:16 r, 10.21m,0000007005Hz,0000000000c,0000000.000s, 011.9C,00002191
2016-10-16 07:43:15 r, 08.21m,0000044246Hz,0000000000c,0000000.000s, 011.9C,00002191
2016-10-16 07:53:16 r, 07.27m,0000104226Hz,0000000000c,0000000.000s, 012.2C,00002191
2016-10-16 08:03:16 r, 06.63m,0000188185Hz,0000000000c,0000000.000s, 012.2C,00002191
2016-10-16 08:13:15 r, 06.21m,0000277357Hz,0000000000c,0000000.000s, 012.8C,00002191
2016-10-16 08:23:16 r, 00.00m,0000485913Hz,0000000000c,0000000.000s, 013.5C,00002191
2016-10-16 08:33:16 r, 00.00m,0000519185Hz,0000000000c,0000000.000s, 013.5C,00002191
2016-10-16 08:43:16 r, 00.00m,0000475562Hz,0000000000c,0000000.000s, 014.1C,00002191
2016-10-16 08:53:16 r, 00.00m,0000597004Hz,0000000000c,0000000.000s, 013.8C,00002191
2016-10-16 09:03:15 r, 00.00m,0000596942Hz,0000000000c,0000000.000s, 014.5C,00002191
2016-10-16 09:13:16 r, 00.00m,0000596864Hz,0000000000c,0000000.000s, 015.7C,00002191
2016-10-16 09:23:16 r, 00.00m,0000596780Hz,0000000000c,0000000.000s, 016.7C,00002191
2016-10-16 09:33:16 r, 00.00m,0000596815Hz,0000000000c,0000000.000s, 017.0C,00002191
2016-10-16 09:43:16 r, 00.00m,0000596692Hz,0000000000c,0000000.000s, 017.7C,00002191
2016-10-16 09:53:16 r, 00.00m,0000596566Hz,0000000000c,0000000.000s, 018.6C,00002191
2016-10-16 10:03:15 r, 00.00m,0000596388Hz,0000000000c,0000000.000s, 020.3C,00002191
2016-10-16 10:13:16 r, 00.00m,0000596250Hz,0000000000c,0000000.000s, 021.9C,00002191
2016-10-16 10:23:16 r, 00.00m,0000596161Hz,0000000000c,0000000.000s, 023.2C,00002191
2016-10-16 10:33:16 r, 00.00m,0000596236Hz,0000000000c,0000000.000s, 023.2C,00002191
2016-10-16 10:43:16 r, 00.00m,0000596201Hz,0000000000c,0000000.000s, 022.8C,00002191
2016-10-16 10:53:16 r, 00.00m,0000596113Hz,0000000000c,0000000.000s, 023.5C,00002191
2016-10-16 11:03:16 r, 00.00m,0000596150Hz,0000000000c,0000000.000s, 023.2C,00002191
2016-10-16 11:13:16 r, 00.00m,0000596143Hz,0000000000c,0000000.000s, 022.8C,00002191
2016-10-16 11:23:16 r, 00.00m,0000596110Hz,0000000000c,0000000.000s, 022.8C,00002191
2016-10-16 11:33:16 r, 00.00m,0000596170Hz,0000000000c,0000000.000s, 023.5C,00002191
2016-10-16 11:43:16 r, 00.00m,0000595958Hz,0000000000c,0000000.000s, 025.1C,00002191
2016-10-16 11:53:16 r, 00.00m,0000595848Hz,0000000000c,0000000.000s, 025.4C,00002191
2016-10-16 12:03:16 r, 00.00m,0000595827Hz,0000000000c,0000000.000s, 025.1C,00002191
2016-10-16 12:13:16 r, 00.00m,0000595940Hz,0000000000c,0000000.000s, 024.8C,00002191
2016-10-16 12:23:16 r, 00.00m,0000596043Hz,0000000000c,0000000.000s, 024.4C,00002191
2016-10-16 12:33:16 r, 00.00m,0000596089Hz,0000000000c,0000000.000s, 024.1C,00002191
2016-10-16 12:43:16 r, 00.00m,0000595968Hz,0000000000c,0000000.000s, 024.8C,00002191
2016-10-16 12:53:16 r, 00.00m,0000595935Hz,0000000000c,0000000.000s, 025.1C,00002191
2016-10-16 13:03:16 r, 00.00m,0000595985Hz,0000000000c,0000000.000s, 025.4C,00002191
2016-10-16 13:13:16 r, 00.00m,0000596042Hz,0000000000c,0000000.000s, 025.1C,00002191
2016-10-16 13:23:16 r, 00.00m,0000596015Hz,0000000000c,0000000.000s, 025.1C,00002191
2016-10-16 13:33:16 r, 00.00m,0000596024Hz,0000000000c,0000000.000s, 024.8C,00002191
2016-10-16 13:43:16 r, 00.00m,0000596062Hz,0000000000c,0000000.000s, 024.4C,00002191
2016-10-16 13:53:16 r, 00.00m,0000596074Hz,0000000000c,0000000.000s, 024.4C,00002191
2016-10-16 14:03:16 r, 00.00m,0000596046Hz,0000000000c,0000000.000s, 024.4C,00002191
2016-10-16 14:13:16 r, 00.00m,0000595961Hz,0000000000c,0000000.000s, 024.8C,00002191
2016-10-16 14:23:16 r, 00.00m,0000596016Hz,0000000000c,0000000.000s, 024.8C,00002191
2016-10-16 14:33:16 r, 00.00m,0000596056Hz,0000000000c,0000000.000s, 024.4C,00002191
2016-10-16 14:43:16 r, 00.00m,0000596162Hz,0000000000c,0000000.000s, 023.8C,00002191
2016-10-16 14:53:16 r, 00.00m,0000596233Hz,0000000000c,0000000.000s, 023.2C,00002191
2016-10-16 15:03:16 r, 00.00m,0000596301Hz,0000000000c,0000000.000s, 022.2C,00002191
2016-10-16 15:13:16 r, 00.00m,0000596276Hz,0000000000c,0000000.000s, 022.2C,00002191
2016-10-16 15:23:16 r, 00.00m,0000596277Hz,0000000000c,0000000.000s, 022.2C,00002191
2016-10-16 15:33:16 r, 00.00m,0000596230Hz,0000000000c,0000000.000s, 022.5C,00002191
2016-10-16 15:43:16 r, 00.00m,0000596341Hz,0000000000c,0000000.000s, 022.2C,00002191
2016-10-16 15:53:16 r, 00.00m,0000596316Hz,0000000000c,0000000.000s, 022.2C,00002191
2016-10-16 16:03:16 r, 00.00m,0000596308Hz,0000000000c,0000000.000s, 021.9C,00002191
2016-10-16 16:13:16 r, 00.00m,0000596356Hz,0000000000c,0000000.000s, 021.5C,00002191
2016-10-16 16:23:16 r, 00.00m,0000596486Hz,0000000000c,0000000.000s, 021.2C,00002191
2016-10-16 16:33:16 r, 00.00m,0000596421Hz,0000000000c,0000000.000s, 020.9C,00002191
2016-10-16 16:43:16 r, 00.00m,0000596432Hz,0000000000c,0000000.000s, 020.9C,00002191
2016-10-16 16:53:16 r, 00.00m,0000559928Hz,0000000000c,0000000.000s, 020.6C,00002191
2016-10-16 17:03:16 r, 00.00m,0000513041Hz,0000000000c,0000000.000s, 020.6C,00002191
2016-10-16 17:13:16 r, 05.93m,0000359220Hz,0000000000c,0000000.000s, 020.3C,00002191
2016-10-16 17:23:16 r, 05.87m,0000377735Hz,0000000000c,0000000.000s, 020.3C,00002191
2016-10-16 17:33:16 r, 06.47m,0000219959Hz,0000000000c,0000000.000s, 019.9C,00002191
2016-10-16 17:43:16 r, 06.38m,0000237218Hz,0000000000c,0000000.000s, 019.9C,00002191
2016-10-16 17:53:16 r, 06.18m,0000285968Hz,0000000000c,0000000.000s, 019.9C,00002191
2016-10-16 18:03:16 r, 06.71m,0000175126Hz,0000000000c,0000000.000s, 019.9C,00002191
2016-10-16 18:13:16 r, 07.09m,0000122938Hz,0000000000c,0000000.000s, 020.3C,00002191
2016-10-16 18:23:16 r, 07.23m,0000108439Hz,0000000000c,0000000.000s, 020.3C,00002191
2016-10-16 18:33:16 r, 08.02m,0000052447Hz,0000000000c,0000000.000s, 019.9C,00002191
2016-10-16 18:43:16 r, 09.50m,0000013482Hz,0000000000c,0000000.000s, 019.9C,00002191
2016-10-16 18:53:16 r, 11.55m,0000002023Hz,0000000000c,0000000.000s, 019.6C,00002191
2016-10-16 19:03:16 r, 13.94m,0000000223Hz,0000000000c,0000000.000s, 019.6C,00002191
2016-10-16 19:13:16 r, 16.65m,0000000018Hz,0000025214c,0000000.055s, 019.6C,00002191
2016-10-16 19:23:16 r, 18.65m,0000000003Hz,0000158418c,0000000.344s, 019.9C,00002191
2016-10-16 19:33:16 r, 19.42m,0000000001Hz,0000322708c,0000000.700s, 019.9C,00002191
2016-10-16 19:43:16 r, 19.49m,0000000002Hz,0000342518c,0000000.743s, 020.3C,00002191
2016-10-16 19:53:16 r, 19.65m,0000000002Hz,0000399206c,0000000.866s, 020.3C,00002191
2016-10-16 20:03:16 r, 19.63m,0000000001Hz,0000390797c,0000000.848s, 020.3C,00002191
2016-10-16 20:13:16 r, 19.76m,0000000001Hz,0000440450c,0000000.956s, 020.3C,00002191
2016-10-16 20:23:16 r, 19.65m,0000000001Hz,0000397466c,0000000.863s, 020.3C,00002191
2016-10-16 20:33:16 r, 19.49m,0000000002Hz,0000343491c,0000000.745s, 020.6C,00002191
2016-10-16 20:43:16 r, 19.29m,0000000001Hz,0000285886c,0000000.620s, 020.6C,00002191
2016-10-16 20:53:16 r, 19.29m,0000000002Hz,0000285989c,0000000.621s, 020.6C,00002191
2016-10-16 21:03:16 r, 19.29m,0000000001Hz,0000286232c,0000000.621s, 020.6C,00002191
2016-10-16 21:13:16 r, 19.30m,0000000002Hz,0000289907c,0000000.629s, 020.9C,00002191
2016-10-16 21:23:16 r, 19.29m,0000000001Hz,0000286055c,0000000.621s, 020.9C,00002191
2016-10-16 21:33:16 r, 18.75m,0000000003Hz,0000174007c,0000000.378s, 020.9C,00002191
2016-10-16 21:43:16 r, 17.87m,0000000006Hz,0000076912c,0000000.167s, 020.9C,00002191
2016-10-16 21:53:16 r, 17.91m,0000000006Hz,0000079539c,0000000.173s, 021.2C,00002191
2016-10-16 22:03:16 r, 18.91m,0000000002Hz,0000200457c,0000000.435s, 021.5C,00002191
2016-10-16 22:13:16 r, 18.72m,0000000003Hz,0000168861c,0000000.366s, 021.9C,00002191
2016-10-16 22:23:16 r, 19.06m,0000000002Hz,0000229287c,0000000.498s, 021.5C,00002191
2016-10-16 22:33:16 r, 18.90m,0000000002Hz,0000196726c,0000000.427s, 021.5C,00002191
2016-10-16 22:43:16 r, 18.47m,0000000004Hz,0000133304c,0000000.289s, 021.9C,00002191
2016-10-16 22:53:16 r, 18.01m,0000000005Hz,0000087917c,0000000.191s, 022.2C,00002191
2016-10-16 23:03:16 r, 17.89m,0000000006Hz,0000077844c,0000000.169s, 022.2C,00002191
2016-10-16 23:13:16 r, 17.80m,0000000006Hz,0000071921c,0000000.156s, 022.2C,00002191
2016-10-16 23:23:16 r, 16.92m,0000000015Hz,0000032208c,0000000.070s, 022.5C,00002191
2016-10-16 23:33:16 r, 16.79m,0000000016Hz,0000028669c,0000000.062s, 022.5C,00002191
2016-10-16 23:43:16 r, 16.56m,0000000020Hz,0000023147c,0000000.050s, 022.5C,00002191
2016-10-16 23:53:16 r, 17.79m,0000000007Hz,0000071738c,0000000.156s, 022.5C,00002191
